Hourly Data Report for July 22, 2021

PRINCE RUPERT
BRITISH COLUMBIA
Current Station Operator: NAVCAN

54°17'10.000" N
130°26'41.000" W
35.40 m
1066482
71022
YPR

Download Data

Hourly Data (July 2021)
Hourly Data Report for July 22, 2021
TIME
LST
Temp Definition
°C
Dew Point Definition
°C
Rel Hum Definition
%
Precip. Amount Definition
mm

Wind Dir Definition
10's deg

Wind Spd Definition
km/h
Visibility Definition
km
Stn Press Definition
kPa
Hmdx Definition


Wind Chill Definition


Weather Definition


00:00 11.9 11.4 97 6.0 35 9 3.6 101.30     Moderate Rain, Fog
01:00 11.6 11.1 97 4.2 31 8 4.8 101.29     Moderate Rain, Fog
02:00 11.4 11.0 97 1.8 28 4 6.4 101.29     Rain, Fog
03:00 11.3 10.9 97 1.2 27 4 6.4 101.29     Rain, Fog
04:00 11.3 10.9 98 0.5 14 4 4.0 101.29     Rain, Fog
05:00 11.3 10.9 97 0.2 10 9 16.1 101.30     LegendNANA
06:00 11.4 11.0 97 0.0 8 8 16.1 101.31     LegendNANA
07:00 11.6 10.8 95 0.0 16 5 16.1 101.33     Rain
08:00 12.1 11.5 96 0.0 15 9 16.1 101.35     LegendNANA
09:00 13.2 11.6 90 0.2 14 17 16.1 101.35     LegendNANA
10:00 12.8 10.6 86 0.0 14 13 16.1 101.37     Rain
11:00 13.5 10.6 83 0.0 14 15 16.1 101.38     LegendNANA
12:00 13.2 10.3 83 0.0 15 17 16.1 101.43     LegendNANA
13:00 16.1 11.4 74 0.0 15 17 16.1 101.42     LegendNANA
14:00 15.4 10.3 71 0.0 14 22 16.1 101.42     LegendNANA
15:00 16.4 11.0 70 0.0 15 22 16.1 101.44     LegendNANA
16:00 14.8 10.3 74 0.0 16 15 16.1 101.41     LegendNANA
17:00 15.6 10.8 73 0.0 16 17 16.1 101.37     LegendNANA
18:00 15.1 9.6 69 0.0 16 17 16.1 101.32     LegendNANA
19:00 14.2 9.5 73 0.0 15 21 16.1 101.32     LegendNANA
20:00 13.8 10.1 78 0.0 14 18 16.1 101.27     LegendNANA
21:00 13.2 10.0 81 0.0 15 13 16.1 101.28     Rain
22:00 12.5 10.1 85 0.0 15 15 16.1 101.30     Rain
23:00 12.2 10.5 89 0.0 15 5 14.5 101.26     Rain

Notes on Data Quality.

Legend

  • E = Estimated
  • M = Missing
  • NA = Not Available*
  • [empty] = Indicates an unobserved value
Date modified: